Weather History for Antigo, WI

Change the Weather History Date:

Friday, June 21, 2013

  Actual Average Record
Temperature  
Mean Temperature 65 °F -  
Max Temperature 70 °F 75 °F 90 °F (1988)
Min Temperature 60 °F 49 °F 34 °F (1992)
Growing Degree Days 15 (Base 50)    
Moisture  
Dew Point 62 °F    
Average Humidity 90    
Maximum Humidity 99    
Minimum Humidity 80    
Precipitation  
Precipitation 1.34 in - - ()
Sea Level Pressure  
Sea Level Pressure 29.99 in    
Wind  
Wind Speed 12 mph (SSW)    
Max Wind Speed 37 mph    
Max Gust Speed 43 mph    
Visibility 9 miles    
Events Rain    
Averages and records for this station are not official NWS values.
T = Trace of Precipitation, MM = Missing Value Source: NWS Daily Summary

Daily Weather History Graph

Daily Weather History Graph

Search for Another Location

Airport:

Trip Planner

Search our weather history database for the weather conditions in past years. The results will help you decide how hot, cold, wet, or windy it might be!

Date:

Astronomy

Jun. 21, 2013 Rise Set
Actual Time 5:09 AM CDT 8:47 PM CDT
Civil Twilight 4:31 AM CDT 9:25 PM CDT
Nautical Twilight 3:41 AM CDT 10:15 PM CDT
Astronomical Twilight 2:34 AM CDT 11:22 PM CDT
Moon 6:54 PM CDT 3:28 AM CDT
Length of Visible Light 16h 53m
Length of Day
15h 38m
Waxing Gibbous, 95% of the Moon is Illuminated
Jun 21
Waxing Gibbous
Jun 23
Full
Jun 29
Last Quarter
Jul 8
New
Jul 15
First Quarter

Hourly Weather History & Observations

Time (CDT) Temp. Dew Point Humidity Pressure Visibility Wind Dir Wind Speed Gust Speed Precip Events Conditions
12:15 AM 63.7 °F 63.1 °F 98% 30.17 in 2.5 mi NNE 11.5 mph - 0.19 in Rain Rain
12:35 AM 63.5 °F 62.8 °F 97% 30.17 in 4.0 mi NNE 12.7 mph - 0.32 in Rain Heavy Rain
12:55 AM 63.0 °F 62.6 °F 99% 30.17 in 2.5 mi NNE 6.9 mph - 0.53 in Rain Heavy Rain
1:15 AM 63.0 °F 62.6 °F 99% 30.17 in 2.5 mi NNE 6.9 mph - 0.14 in Rain Heavy Rain
1:35 AM 62.8 °F 62.6 °F 99% 30.15 in 2.5 mi East 15.0 mph - 0.31 in Rain Heavy Rain
1:55 AM 62.4 °F 61.5 °F 97% 30.12 in 4.0 mi SE 12.7 mph - 0.39 in Rain Rain
2:15 AM 62.1 °F 61.0 °F 96% 30.08 in 7.0 mi SE 11.5 mph - 0.02 in Rain Rain
2:35 AM 62.1 °F 61.2 °F 97% 30.08 in 5.0 mi SE 13.8 mph - 0.03 in Rain Light Rain
2:55 AM 61.7 °F 60.4 °F 96% 30.08 in 7.0 mi East 10.4 mph - 0.03 in   Mostly Cloudy
3:15 AM 61.5 °F 60.4 °F 96% 30.06 in 7.0 mi ESE 10.4 mph - N/A   Scattered Clouds
3:35 AM 62.2 °F 60.3 °F 93% 30.05 in 10.0 mi SE 12.7 mph 18.4 mph N/A   Clear
3:55 AM 62.6 °F 60.6 °F 93% 30.06 in 10.0 mi SE 10.4 mph - N/A   Mostly Cloudy
4:15 AM 62.4 °F 60.1 °F 92% 30.05 in 10.0 mi SE 10.4 mph - N/A   Overcast
4:35 AM 61.7 °F 59.7 °F 93% 30.04 in 10.0 mi SE 11.5 mph - N/A   Mostly Cloudy
4:55 AM 61.2 °F 59.2 °F 93% 30.02 in 10.0 mi SE 15.0 mph - N/A   Clear
5:15 AM 61.3 °F 58.8 °F 91% 29.99 in 10.0 mi SE 16.1 mph - N/A   Clear
5:35 AM 61.2 °F 58.5 °F 91% 30.01 in 10.0 mi SE 10.4 mph - N/A   Scattered Clouds
5:55 AM 60.8 °F 58.3 °F 91% 29.99 in 10.0 mi SE 9.2 mph - N/A   Scattered Clouds
6:15 AM 60.8 °F 58.1 °F 91% 29.98 in 10.0 mi SE 10.4 mph - N/A   Mostly Cloudy
6:35 AM 60.4 °F 58.1 °F 92% 29.99 in 10.0 mi ESE 8.1 mph - N/A Rain Rain
6:55 AM 60.3 °F 58.3 °F 93% 29.99 in 10.0 mi East 4.6 mph - N/A   Mostly Cloudy
7:15 AM 60.1 °F 58.5 °F 94% 29.97 in 7.0 mi ENE 10.4 mph - 0.03 in Rain Heavy Rain
7:35 AM 60.4 °F 58.5 °F 93% 30.01 in 7.0 mi East 4.6 mph - 0.06 in Rain Light Rain
7:55 AM 60.8 °F 59.5 °F 96% 30.00 in 3.0 mi South 15.0 mph 23.0 mph 0.23 in Rain Rain
8:15 AM 61.2 °F 59.9 °F 96% 29.98 in 5.0 mi South 18.4 mph 21.9 mph 0.03 in Rain Rain
8:35 AM 61.7 °F 60.8 °F 97% 29.95 in 7.0 mi SE 19.6 mph 23.0 mph 0.08 in Rain Rain
8:55 AM 61.9 °F 61.0 °F 97% 29.92 in 7.0 mi SSE 18.4 mph - 0.13 in Rain Rain
9:15 AM 62.2 °F 61.7 °F 98% 29.81 in 5.0 mi SE 36.8 mph 42.6 mph 0.02 in Rain Light Rain
9:35 AM 62.6 °F 61.7 °F 97% 29.81 in 10.0 mi SE 28.8 mph 38.0 mph 0.03 in   Overcast
9:55 AM 63.0 °F 61.7 °F 96% 29.83 in 10.0 mi SE 23.0 mph 27.6 mph 0.03 in   Mostly Cloudy
10:15 AM 63.0 °F 61.7 °F 96% 29.84 in 10.0 mi SE 13.8 mph - N/A   Scattered Clouds
10:35 AM 63.9 °F 61.9 °F 93% 29.84 in 10.0 mi SE 11.5 mph - N/A   Clear
10:55 AM 64.6 °F 62.2 °F 92% 29.87 in 10.0 mi South 6.9 mph - N/A   Scattered Clouds
11:15 AM 65.3 °F 62.8 °F 92% 29.92 in 10.0 mi SSW 8.1 mph - N/A   Mostly Cloudy
11:35 AM 65.5 °F 62.6 °F 90% 29.92 in 10.0 mi South 12.7 mph - N/A   Overcast
11:55 AM 66.2 °F 62.4 °F 88% 29.93 in 10.0 mi SSW 13.8 mph 17.3 mph N/A   Overcast
12:15 PM 66.6 °F 62.6 °F 87% 29.93 in 10.0 mi SSW 9.2 mph - N/A   Overcast
12:35 PM 66.4 °F 62.2 °F 86% 29.93 in 10.0 mi SW 10.4 mph - N/A   Overcast
12:55 PM 67.1 °F 63.0 °F 87% 29.93 in 10.0 mi SSW 9.2 mph - N/A   Overcast
1:15 PM 68.4 °F 63.5 °F 84% 29.92 in 10.0 mi SSW 10.4 mph - N/A   Overcast
1:35 PM 68.9 °F 63.5 °F 83% 29.91 in 10.0 mi SW 10.4 mph - N/A   Overcast
1:55 PM 68.9 °F 62.4 °F 80% 29.92 in 10.0 mi SW 10.4 mph 16.1 mph N/A   Overcast
2:15 PM 67.6 °F 61.9 °F 82% 29.93 in 10.0 mi WSW 16.1 mph 21.9 mph N/A   Overcast
2:35 PM 69.3 °F 63.3 °F 81% 29.93 in 10.0 mi WSW 17.3 mph - N/A   Overcast
2:55 PM 70.5 °F 64.0 °F 80% 29.94 in 10.0 mi West 15.0 mph - N/A   Overcast
3:15 PM 70.0 °F 63.7 °F 80% 29.93 in 10.0 mi West 11.5 mph - N/A   Overcast
3:35 PM 68.7 °F 63.7 °F 84% 29.94 in 10.0 mi West 13.8 mph 21.9 mph N/A   Overcast
3:55 PM 69.1 °F 63.9 °F 83% 29.95 in 10.0 mi West 11.5 mph - N/A   Overcast
4:15 PM 68.5 °F 63.9 °F 85% 29.95 in 10.0 mi West 9.2 mph - N/A   Overcast
4:35 PM 69.3 °F 64.4 °F 84% 29.95 in 10.0 mi West 9.2 mph - N/A   Overcast
4:55 PM 69.4 °F 64.6 °F 84% 29.95 in 10.0 mi West 9.2 mph - N/A   Overcast
5:15 PM 69.4 °F 64.8 °F 85% 29.97 in 10.0 mi WSW 10.4 mph - N/A   Overcast
5:35 PM 69.3 °F 64.6 °F 85% 29.97 in 10.0 mi West 10.4 mph - N/A   Overcast
5:55 PM 70.0 °F 64.2 °F 82% 29.97 in 10.0 mi West 9.2 mph - N/A   Overcast
6:15 PM 70.0 °F 63.9 °F 81% 29.98 in 10.0 mi West 10.4 mph - N/A   Overcast
6:35 PM 70.9 °F 64.4 °F 80% 29.99 in 10.0 mi West 13.8 mph - N/A   Mostly Cloudy
6:55 PM 69.6 °F 63.9 °F 82% 30.00 in 10.0 mi West 10.4 mph - N/A   Mostly Cloudy
7:15 PM 69.8 °F 64.0 °F 82% 30.00 in 10.0 mi West 12.7 mph - N/A   Scattered Clouds
7:35 PM 68.9 °F 63.7 °F 83% 30.01 in 10.0 mi West 8.1 mph - N/A   Clear
7:55 PM 68.5 °F 63.5 °F 84% 30.01 in 10.0 mi West 8.1 mph - N/A   Scattered Clouds
8:15 PM 67.1 °F 63.5 °F 88% 30.02 in 10.0 mi West 6.9 mph - N/A   Scattered Clouds
8:35 PM 67.1 °F 63.7 °F 89% 30.02 in 10.0 mi West 8.1 mph - N/A   Mostly Cloudy
8:55 PM 66.4 °F 63.5 °F 90% 30.02 in 10.0 mi WSW 5.8 mph - N/A   Mostly Cloudy
9:15 PM 65.3 °F 63.0 °F 92% 30.03 in 10.0 mi WSW 6.9 mph - N/A   Mostly Cloudy
9:35 PM 65.8 °F 63.5 °F 92% 30.04 in 10.0 mi West 6.9 mph - N/A   Overcast
9:55 PM 66.0 °F 63.5 °F 92% 30.05 in 10.0 mi WNW 6.9 mph - N/A   Overcast
10:15 PM 65.7 °F 63.5 °F 93% 30.06 in 10.0 mi West 6.9 mph - N/A   Overcast
10:35 PM 65.5 °F 63.7 °F 94% 30.08 in 10.0 mi WNW 6.9 mph - N/A   Overcast
10:55 PM 65.7 °F 63.5 °F 93% 30.08 in 10.0 mi NW 5.8 mph - N/A   Overcast
11:15 PM 64.9 °F 62.2 °F 91% 30.08 in 10.0 mi NNW 5.8 mph - N/A   Overcast
11:35 PM 64.9 °F 61.7 °F 89% 30.07 in 10.0 mi North 8.1 mph - N/A   Overcast
11:55 PM 62.8 °F 61.0 °F 94% 30.05 in 10.0 mi North 4.6 mph - N/A   Scattered Clouds